Location: Cabrera Baja
(40.4089°N, 4.3354°W)
Time: 02:48:00
(UTC+00:00)

CZ-2C R/B - Pass Details

Date: 14 July 2020
Orbit: 503 x 566 km, 97.7° (Epoch: 03 August)

Event Time Altitude Azimuth Distance (km) Brightness Sun altitude
Rises 03:47:34 0° 10° (N) 2,774 7.3 -11.9°
Reaches altitude 10° 03:49:44 10° 10° (N) 1,872 6.3 -11.6°
Maximum altitude 03:53:48 79° 283° (WNW) 581 2.8 -11.0°
Enters shadow 03:57:45 10° 198° (SSW) 1,826 5.0 -10.4°
